OPS 4682 DEB, 17666

Orbit data source: Space-Track

OPS 4682 DEB, 17666 is space debris in LEO originally from a launch on Sat, 03 Apr 1965 UTC launched from the Air Force Western Test Range (AFWTR). Debris objects in space refer to the collection of defunct objects orbiting the Earth. Examples of debris include non-operational satellites, rocket bodies, and fragments generated from explosions, collisions, or faulty payload assembly.

Loading next visibility...
Identifier
17666, 1965-027V
Orbit
LEO
Country
Flag of USUS
Related business
Manufacturer
Unknown
Mission
Spacecraft
Bus & Motor
Unknown
Mass
Unknown
Launch date (UTC)
1965-04-03 (61 years ago)
Launch vehicle
Unknown
Launch site
Air Force Western Test Range (AFWTR)
Object type
Payload
Rocket body
Debris
Shape & HBR
Unknown shape, 0.1 m
Radar Cross Section
Medium (>0.1 m² and <1 m²)

Expand to show TLE details & history
Last TLE update: 11 hours ago

TLE from 11 hours ago
0 OPS 4682 DEB
1 17666U 65027V   26178.24168794  .00000511  00000-0  17332-2 0  9996
2 17666  90.2448  12.2383 0041841  63.1791 350.1388 12.97307210951116
Epoch: 2026-06-27T05:48Z
TLE epoch observation values (Epoch: 2026-06-27T05:48:01.838Z)
Latitude
53.3268°
Longitude
9.54489°
Altitude
1,249.886 km
Speed
7.25 km/s
True Right ascension
00h 47m 38s
True Declination
53° 10' 21"
Sunlit
Object was in daylight at epoch
Visualization orbit readout
Latitude
Unknown
Longitude
Unknown
Altitude
Unknown
Speed
Unknown
Apparent Right ascension
Unknown
Apparent Declination
Unknown
Sunlit
N/A
Visualization observer readout
Local Sidereal Time
03:41:47
Azimuth
Unknown
Elevation
Unknown
Doppler factor
Unknown
Orbital elements
Apogee altitude
1,301.786 km
Perigee altitude
1,237.787 km
Semi-major axis
7,647.923 km
Eccentricity
0.00418
Inclination
90.2448°
RAAN
12.2383°
Arg. of periapsis
63.1791°
True anomaly
350.05626°
Mean anomaly
350.1388°
Eccentric anomaly
350.09757°
Mean motion
3.2451 °/min
Orbital period
110.94 mins
BSTAR
0.0017332
Loading maneuver chart data...
Computing Atmospheric mass density...
Loading historical data...
Loading historical data...
Loading historical data...
Loading historical data...
Loading historical data...
Loading historical data...
Loading historical data...

Documentation

Showing up to 5 results
|